(247) Eukrate

Orbital Elements

The following orbital elements are taken from MPC 27543:
  (247) Eukrate
Epoch 2001 Apr. 1.0 TT = JDT 2452000.5                  Williams
M 299.24135              (2000.0)            P               Q
n   0.21721711     Peri.   55.33744     +0.56521061     -0.82494423
a   2.7407749      Node     0.27090     +0.54838029     +0.37391264
e   0.2437041      Incl.   24.97646     +0.61629216     +0.42385888
P   4.54           H    8.04          G   0.15           U   1
From 99 observations at 34 oppositions, 1885-1996, mean residual 1".13.
An explanation of the orbital elements is available.

These orbital elements are also available in forms suitable for loading into a number of popular planetarium-type software programs.


Ephemeris

The following ephemeris is at intervals of five days. A daily ephemeris covering the same time interval is also available.

Date    TT    R. A. (2000) Decl.     Delta      r     Elong.  Phase     V
 
2001 08 19    01 46.94   +15 00.7    1.587    2.223   115.8    24.2    11.9
2001 08 24    01 47.49   +16 14.9    1.527    2.213   120.0    23.3    11.8
2001 08 29    01 47.24   +17 29.7    1.470    2.204   124.4    22.2    11.7
2001 09 03    01 46.14   +18 44.8    1.416    2.194   128.8    21.0    11.5
2001 09 08    01 44.14   +19 59.7    1.367    2.185   133.4    19.6    11.4
2001 09 13    01 41.17   +21 13.7    1.321    2.177   138.1    18.0    11.3
2001 09 18    01 37.24   +22 26.1    1.281    2.168   142.8    16.3    11.1
2001 09 23    01 32.35   +23 35.6    1.246    2.160   147.5    14.5    11.0
2001 09 28    01 26.58   +24 41.3    1.216    2.152   151.9    12.7    10.9
2001 10 03    01 20.05   +25 42.0    1.193    2.145   155.8    11.0    10.8
2001 10 08    01 12.90   +26 36.5    1.176    2.138   158.7     9.8    10.7
2001 10 13    01 05.36   +27 24.0    1.165    2.131   160.2     9.1    10.6
2001 10 18    00 57.65   +28 03.8    1.161    2.125   159.9     9.3    10.6
2001 10 23    00 50.08   +28 35.8    1.164    2.118   157.7    10.2    10.7
2001 10 28    00 42.89   +29 00.6    1.173    2.113   154.4    11.7    10.7
2001 11 02    00 36.34   +29 18.9    1.187    2.107   150.2    13.5    10.8
2001 11 07    00 30.61   +29 31.9    1.208    2.102   145.7    15.4    10.9
2001 11 12    00 25.85   +29 40.9    1.233    2.097   141.0    17.3    11.0
2001 11 17    00 22.17   +29 47.1    1.264    2.093   136.3    19.0    11.1
2001 11 22    00 19.62   +29 52.1    1.298    2.089   131.7    20.7    11.2
2001 11 27    00 18.21   +29 57.0    1.335    2.086   127.2    22.1    11.3
2001 12 02    00 17.91   +30 02.8    1.376    2.083   122.9    23.4    11.4
2001 12 07    00 18.68   +30 10.1    1.419    2.080   118.7    24.6    11.5
2001 12 12    00 20.46   +30 19.6    1.465    2.078   114.6    25.5    11.6
2001 12 17    00 23.21   +30 31.5    1.512    2.076   110.7    26.3    11.7
2001 12 22    00 26.85   +30 46.2    1.561    2.074   107.0    27.0    11.8
2001 12 27    00 31.32   +31 03.8    1.611    2.073   103.5    27.5    11.9

Back to Bright Minor Planets

Astronomical Headlines Index

MPC